This is the latest recevied weather packets stored in our database for station/object WA9SDJ-13. If no packets are shown the sender has not sent any weather packets the latest 10 day(s).
| Time | Temp. | Humidity | Pressure | Rain* | Wind** | Luminosity | Snow |
|---|---|---|---|---|---|---|---|
| 1778190122 | 17.22° C | 44% | 1012.7 hPa | 0 mm | - | 123 W/m² | - |
| 1778190063 | 17.22° C | 43% | 1012.6 hPa | 0 mm | - | 139 W/m² | - |
| 1778190002 | 17.22° C | 44% | 1012.6 hPa | 0 mm | - | 148 W/m² | - |
| 1778189942 | 17.22° C | 41% | 1012.7 hPa | 0 mm | - | 190 W/m² | - |
| 1778189882 | 17.22° C | 42% | 1012.6 hPa | 0 mm | - | 188 W/m² | - |
| 1778189822 | 17.22° C | 41% | 1012.6 hPa | 0 mm | - | 278 W/m² | - |
| 1778189762 | 17.22° C | 41% | 1012.6 hPa | 0 mm | - | 144 W/m² | - |
| 1778189703 | 17.78° C | 40% | 1012.6 hPa | 0 mm | - | 109 W/m² | - |
| 1778189643 | 17.78° C | 43% | 1012.6 hPa | 0 mm | - | 97 W/m² | - |
| 1778189582 | 17.78° C | 45% | 1012.7 hPa | 0 mm | - | 197 W/m² | - |
| 1778189522 | 17.78° C | 43% | 1012.6 hPa | 0 mm | - | 273 W/m² | - |
| 1778189462 | 17.78° C | 43% | 1012.6 hPa | 0 mm | - | 216 W/m² | - |
| 1778189403 | 17.78° C | 42% | 1012.6 hPa | 0 mm | - | 169 W/m² | - |
| 1778189342 | 17.78° C | 41% | 1012.6 hPa | 0 mm | - | 258 W/m² | - |
| 1778189283 | 17.78° C | 42% | 1012.5 hPa | 0 mm | - | 436 W/m² | - |
| 1778189222 | 17.78° C | 40% | 1012.6 hPa | 0 mm | - | 512 W/m² | - |
| 1778189162 | 17.78° C | 41% | 1012.6 hPa | 0 mm | - | 626 W/m² | - |
| 1778189102 | 17.78° C | 43% | 1012.6 hPa | 0 mm | - | 645 W/m² | - |
| 1778189042 | 17.78° C | 43% | 1012.6 hPa | 0 mm | - | 654 W/m² | - |
| 1778188983 | 17.78° C | 45% | 1012.6 hPa | 0 mm | - | 656 W/m² | - |
| 1778188923 | 17.78° C | 43% | 1012.6 hPa | 0 mm | - | 659 W/m² | - |
| 1778188862 | 17.78° C | 45% | 1012.6 hPa | 0 mm | - | 668 W/m² | - |
| 1778188803 | 17.78° C | 45% | 1012.6 hPa | 0 mm | - | 484 W/m² | - |
| 1778188743 | 17.78° C | 45% | 1012.6 hPa | 0 mm | - | 463 W/m² | - |
| 1778188683 | 17.78° C | 45% | 1012.6 hPa | 0 mm | - | 280 W/m² | - |
* Rain latest hour (hover to see other rain measurements)
** Current wind speed in m/s (hover to see current wind gust speed)